When you browse on this site, cookies collect data to enhance your experience and personalize the content and advertising you see.
Visit our Privacy Policy to learn more. By continuing to use the site, you agree to this use of cookies and data.
  • In Lithuania
  • List of Countries
  • For 7 days
  • Water Temperature
  • Satellite Maps
  • Weather Map
  • Weather Widgets
  • user-avatar
    Login

    Hourly Weather Antoniny

    Today, 22 February, Friday

    Time Temperature Precipitation Wind Pressure Humidity
    00:00 +6°C° 0.4 mm 4 mps 761 mmHg 90%
    01:00 +5°C° 0 mm 4 mps 761 mmHg 90%
    02:00 +3°C° 0.1 mm 5 mps 762 mmHg 87%
    03:00 +1°C° 0.1 mm 6 mps 763 mmHg 83%
    04:00 -1°C° 0.1 mm 6 mps 764 mmHg 80%
    05:00 -2°C° 0 mm 6 mps 765 mmHg 76%
    06:00 -3°C° 0 mm 6 mps 767 mmHg 72%
    07:00 -4°C° 0 mm 5 mps 768 mmHg 68%
    08:00 -4°C° 0 mm 5 mps 770 mmHg 61%
    09:00 -2°C° 0 mm 5 mps 771 mmHg 55%
    10:00 -2°C° 0 mm 5 mps 772 mmHg 48%
    11:00 -2°C° 0 mm 5 mps 773 mmHg 45%
    12:00 -1°C° 0 mm 5 mps 773 mmHg 43%
    13:00 -1°C° 0 mm 4 mps 774 mmHg 40%
    14:00 -1°C° 0 mm 4 mps 774 mmHg 40%
    15:00 -1°C° 0 mm 4 mps 775 mmHg 40%
    16:00 -1°C° 0 mm 4 mps 775 mmHg 40%
    17:00 -1°C° 0 mm 3 mps 775 mmHg 44%
    18:00 -2°C° 0 mm 3 mps 776 mmHg 48%
    19:00 -3°C° 0 mm 2 mps 777 mmHg 52%
    20:00 -3°C° 0 mm 2 mps 777 mmHg 52%
    21:00 -3°C° 0 mm 2 mps 777 mmHg 52%
    22:00 -3°C° 0 mm 2 mps 778 mmHg 52%
    23:00 -3°C° 0 mm 2 mps 778 mmHg 52%

    Tomorrow, 23 February, Saturday

    Time Temperature Precipitation Wind Pressure Humidity
    00:00 -4°C° 0 mm 2 mps 778 mmHg 51%
    01:00 -4°C° 0 mm 2 mps 778 mmHg 50%
    02:00 -4°C° 0 mm 2 mps 778 mmHg 49%
    03:00 -4°C° 0 mm 2 mps 778 mmHg 49%
    04:00 -4°C° 0 mm 2 mps 778 mmHg 49%
    05:00 -2°C° 0 mm 1 mps 778 mmHg 49%
    06:00 -2°C° 0 mm 1 mps 778 mmHg 48%
    07:00 -2°C° 0 mm 1 mps 778 mmHg 48%
    08:00 -1°C° 0 mm 1 mps 778 mmHg 42%
    09:00 0°C° 0 mm 1 mps 778 mmHg 37%
    10:00 -1°C° 0 mm 2 mps 778 mmHg 31%
    11:00 +1°C° 0 mm 2 mps 778 mmHg 28%
    12:00 +2°C° 0 mm 2 mps 778 mmHg 26%
    13:00 +2°C° 0 mm 3 mps 778 mmHg 23%
    14:00 +3°C° 0 mm 2 mps 777 mmHg 25%
    15:00 +3°C° 0 mm 2 mps 777 mmHg 27%
    16:00 +3°C° 0 mm 2 mps 777 mmHg 29%
    17:00 +2°C° 0 mm 2 mps 776 mmHg 32%
    18:00 -1°C° 0 mm 2 mps 776 mmHg 35%
    19:00 0°C° 0 mm 1 mps 776 mmHg 38%
    20:00 -2°C° 0 mm 2 mps 776 mmHg 38%
    21:00 -2°C° 0 mm 2 mps 776 mmHg 39%
    22:00 -2°C° 0 mm 2 mps 776 mmHg 39%
    23:00 -2°C° 0 mm 2 mps 775 mmHg 39%

    Day after tomorrow, 24 February, Sunday

    Time Temperature Precipitation Wind Pressure Humidity
    00:00 -2°C° 0 mm 2 mps 775 mmHg 39%
    01:00 -2°C° 0 mm 2 mps 775 mmHg 39%
    02:00 -2°C° 0 mm 2 mps 775 mmHg 39%
    03:00 -2°C° 0 mm 2 mps 775 mmHg 39%
    04:00 -2°C° 0 mm 2 mps 775 mmHg 39%
    05:00 -2°C° 0 mm 2 mps 774 mmHg 38%
    06:00 0°C° 0 mm 1 mps 774 mmHg 38%
    07:00 0°C° 0 mm 1 mps 774 mmHg 37%
    08:00 -1°C° 0 mm 2 mps 774 mmHg 35%
    09:00 +2°C° 0 mm 2 mps 774 mmHg 33%
    10:00 +3°C° 0 mm 2 mps 775 mmHg 31%
    11:00 +5°C° 0 mm 2 mps 775 mmHg 31%
    12:00 +5°C° 0 mm 3 mps 774 mmHg 31%
    13:00 +7°C° 0 mm 3 mps 774 mmHg 31%
    14:00 +7°C° 0 mm 3 mps 774 mmHg 37%
    15:00 +7°C° 0 mm 2 mps 774 mmHg 42%
    16:00 +6°C° 0 mm 2 mps 774 mmHg 47%
    17:00 +5°C° 0 mm 2 mps 774 mmHg 51%
    18:00 +4°C° 0 mm 2 mps 774 mmHg 55%
    19:00 +2°C° 0 mm 2 mps 774 mmHg 60%
    20:00 +2°C° 0 mm 2 mps 774 mmHg 61%
    21:00 +2°C° 0 mm 2 mps 774 mmHg 63%
    22:00 +1°C° 0 mm 2 mps 774 mmHg 64%
    23:00 +1°C° 0 mm 2 mps 774 mmHg 66%

    25 February, Monday

    Time Temperature Precipitation Wind Pressure Humidity
    00:00 +1°C° 0 mm 2 mps 774 mmHg 68%
    01:00 +1°C° 0 mm 2 mps 775 mmHg 69%
    02:00 +1°C° 0 mm 2 mps 774 mmHg 71%
    03:00 +1°C° 0 mm 2 mps 774 mmHg 72%
    04:00 +1°C° 0 mm 2 mps 774 mmHg 74%
    05:00 +1°C° 0 mm 2 mps 774 mmHg 74%
    06:00 -1°C° 0 mm 2 mps 774 mmHg 75%
    07:00 -1°C° 0 mm 2 mps 774 mmHg 75%
    08:00 +2°C° 0 mm 2 mps 774 mmHg 71%
    09:00 +4°C° 0 mm 2 mps 775 mmHg 67%
    10:00 +6°C° 0 mm 2 mps 775 mmHg 62%
    11:00 +7°C° 0 mm 2 mps 774 mmHg 60%
    12:00 +8°C° 0 mm 2 mps 774 mmHg 58%
    13:00 +10°C° 0 mm 2 mps 774 mmHg 56%
    14:00 +10°C° 0 mm 2 mps 774 mmHg 57%
    15:00 +10°C° 0 mm 2 mps 774 mmHg 59%
    16:00 +10°C° 0 mm 2 mps 773 mmHg 61%
    17:00 +8°C° 0 mm 2 mps 773 mmHg 65%
    18:00 +7°C° 0 mm 2 mps 773 mmHg 70%
    19:00 +5°C° 0 mm 2 mps 773 mmHg 74%
    20:00 +5°C° 0 mm 2 mps 772 mmHg 75%
    21:00 +5°C° 0 mm 2 mps 772 mmHg 76%
    22:00 +4°C° 0 mm 2 mps 772 mmHg 76%
    23:00 +3°C° 0 mm 3 mps 771 mmHg 77%

    26 February, Tuesday

    Time Temperature Precipitation Wind Pressure Humidity
    00:00 +3°C° 0 mm 3 mps 771 mmHg 79%
    01:00 +3°C° 0 mm 3 mps 771 mmHg 80%
    02:00 +3°C° 0 mm 3 mps 770 mmHg 79%
    03:00 +1°C° 0 mm 4 mps 770 mmHg 79%
    04:00 +1°C° 0 mm 4 mps 769 mmHg 79%
    05:00 +1°C° 0 mm 4 mps 769 mmHg 78%
    06:00 +1°C° 0 mm 4 mps 769 mmHg 78%
    07:00 +1°C° 0 mm 4 mps 768 mmHg 77%
    08:00 +3°C° 0 mm 4 mps 768 mmHg 74%
    09:00 +4°C° 0 mm 4 mps 768 mmHg 71%
    10:00 +5°C° 0 mm 4 mps 768 mmHg 69%
    11:00 +6°C° 0 mm 4 mps 768 mmHg 70%
    12:00 +7°C° 0 mm 3 mps 768 mmHg 70%
    13:00 +8°C° 0 mm 3 mps 768 mmHg 71%
    14:00 +8°C° 0 mm 3 mps 768 mmHg 69%
    15:00 +9°C° 0 mm 3 mps 768 mmHg 66%
    16:00 +10°C° 0 mm 3 mps 768 mmHg 64%
    17:00 +8°C° 0 mm 3 mps 768 mmHg 69%
    18:00 +7°C° 0 mm 3 mps 769 mmHg 73%
    19:00 +4°C° 0 mm 3 mps 769 mmHg 78%
    20:00 +5°C° 0 mm 2 mps 769 mmHg 77%
    21:00 +4°C° 0 mm 2 mps 769 mmHg 77%
    22:00 +3°C° 0 mm 2 mps 769 mmHg 76%
    23:00 +3°C° 0 mm 2 mps 769 mmHg 75%

    27 February, Wednesday

    Time Temperature Precipitation Wind Pressure Humidity
    00:00 +2°C° 0 mm 2 mps 769 mmHg 74%
    01:00 +2°C° 0 mm 2 mps 769 mmHg 73%
    02:00 +3°C° 0 mm 1 mps 769 mmHg 73%
    03:00 +2°C° 0 mm 1 mps 769 mmHg 73%
    04:00 +2°C° 0 mm 1 mps 769 mmHg 73%
    05:00 +2°C° 0 mm 1 mps 769 mmHg 72%
    06:00 +2°C° 0 mm 1 mps 769 mmHg 72%
    07:00 +2°C° 0 mm 1 mps 768 mmHg 72%
    08:00 +4°C° 0 mm 1 mps 768 mmHg 65%
    09:00 +4°C° 0 mm 2 mps 768 mmHg 59%
    10:00 +6°C° 0 mm 2 mps 768 mmHg 53%
    11:00 +8°C° 0 mm 3 mps 767 mmHg 50%
    12:00 +9°C° 0 mm 3 mps 766 mmHg 48%
    13:00 +10°C° 0 mm 4 mps 766 mmHg 45%
    14:00 +10°C° 0 mm 4 mps 765 mmHg 50%
    15:00 +11°C° 0 mm 4 mps 764 mmHg 56%
    16:00 +11°C° 0 mm 4 mps 763 mmHg 62%
    17:00 +10°C° 0 mm 4 mps 762 mmHg 71%
    18:00 +9°C° 0 mm 3 mps 762 mmHg 80%
    19:00 +8°C° 0 mm 3 mps 761 mmHg 90%
    20:00 +7°C° 0 mm 3 mps 761 mmHg 90%
    21:00 +6°C° 0 mm 4 mps 760 mmHg 91%
    22:00 +6°C° 0 mm 4 mps 759 mmHg 92%
    23:00 +6°C° 0 mm 4 mps 759 mmHg 91%
    Show more